Home > Time Zones > World Clock > Weather > U.S.A. > Nome > Past weeks

Flag for U.S.A. Weather past 2 weeks in Nome, Alaska, U.S.A.

Now
44 °F

Light rain. Low clouds.


Feels Like: 40 °F
Forecast: 43 / 46 °F
Wind: 7 mph from Southwest

Location: Nome Airport

Current Time: Jul 1, 2015 at 3:59:08 PM

Latest Report: Jul 1, 2015 at 3:00 PM


Visibility: 10 mi

Pressure: 30.06 "Hg

Humidity: 96%

Dew point: 43 °F

Location of NomeLocation

Historic Weather in Nome — Graph

°F

Nome temperature yesterday

Maximum temperature yesterday: 44 °F (at 12:53 AM)
Minimum temperature yesterday: 43 °F (at 2:53 AM)
Average temperature yesterday: 44 °F

Past Weeks' High & Low Weather Summary

 TemperatureHumidityPressure
High78 °F (Jun 19, 8:53 PM)100% (Jun 17, 3:53 AM)30.34 "Hg (Jun 17, 3:53 AM)
Low37 °F (Jun 17, 3:53 AM)31% (Jun 19, 8:53 PM)29.63 "Hg (Jun 25, 9:57 PM)
Average52 °F80%29.93 "Hg
* Reported Jun 16 3:53 PM — Jul 1 3:00 PM, Nome, Weather by CustomWeather, © 2015

Note: Actual official high and low records may vary slightly from our data, if they occured in-between our weather recording intervals... More about our weather records

Advertising

Nome weather history for previous 24 hours

 ConditionsComfort  
Time TempWeatherWind HumidityBarometerVisibility
3:00 PM
Wed, Jul 1
44 °FLight rain. Low clouds.7 mph96%30.06 "Hg10 mi
1:53 PM44 °FLight rain. Overcast.6 mph93%30.06 "Hg10 mi
12:53 PM44 °FOvercast.8 mph89%30.06 "Hg10 mi
11:53 AM43 °FLow clouds.7 mph93%30.05 "Hg10 mi
10:53 AM43 °FLow clouds.9 mph97%30.04 "Hg10 mi
9:53 AM43 °FLow clouds.6 mph93%30.03 "Hg10 mi
8:53 AM43 °FLow clouds.9 mph97%30.04 "Hg10 mi
7:53 AM43 °FLow clouds.9 mph100%30.04 "Hg10 mi
6:53 AM43 °FLow clouds.7 mph100%30.03 "Hg10 mi
5:53 AM43 °FLow clouds.7 mph100%30.04 "Hg10 mi
4:53 AM43 °FLow clouds.6 mph100%30.03 "Hg10 mi
3:53 AM44 °FLow clouds.6 mph96%30.03 "Hg10 mi
2:53 AM44 °FLow clouds.5 mph93%30.03 "Hg10 mi
1:53 AM44 °FLow clouds.3 mph93%30.03 "Hg10 mi
12:53 AM44 °FLow clouds.3 mph96%30.03 "Hg10 mi
11:53 PM
Tue, Jun 30
44 °FLow clouds.6 mph93%30.02 "Hg9 mi
10:53 PM44 °FLow clouds.5 mph93%30.01 "Hg10 mi
9:53 PM44 °FLow clouds.6 mph96%30.01 "Hg7 mi
8:53 PM44 °FLow clouds.9 mph96%30.01 "Hg10 mi
7:53 PM44 °FLow clouds.8 mph96%30.01 "Hg10 mi
6:53 PM44 °FLow clouds.9 mph96%30.01 "Hg10 mi
5:53 PM44 °FLow clouds.9 mph96%30.01 "Hg9 mi
4:53 PM44 °FLow clouds.10 mph96%30.00 "Hg10 mi
3:53 PM44 °FDrizzle. Low clouds.10 mph96%29.99 "Hg10 mi
Weather by CustomWeather, © 2015

See weather overviewHow to use our weather pages